Weather History for Scottsbluff, NE

Change the Weather History Date:

Friday, January 4, 2013

  Actual Average Record
Temperature  
Mean Temperature -3 °C -3 °C  
Max Temperature 7 °C 4 °C 17 °C (1927)
Min Temperature -13 °C -11 °C -30 °C (1959)
Degree Days  
Heating Degree Days 38 39  
Month to date heating degree days 165 156  
Since 1 July heating degree days 2589 2928  
Cooling Degree Days 0 0  
Month to date cooling degree days 0 0  
Year to date cooling degree days 0 0  
Moisture  
Dew Point -13 °C    
Average Humidity 52    
Maximum Humidity 74    
Minimum Humidity 29    
Precipitation  
Precipitation 0.00 mm 0.51 mm 0.99 mm (1977)
Month to date precipitation 0.02 0.06  
Year to date precipitation 0.02 0.06  
Snow  
Snow 0.00 cm 0.51 cm 14.48 cm (2005)
Month to date snowfall T 0.8  
Since 1 July snowfall 12.8 16.8  
Snow Depth 0.00 cm    
Sea Level Pressure  
Sea Level Pressure 1023 hPa    
Wind  
Wind Speed 12 km/h (NW)    
Max Wind Speed 21 km/h    
Max Gust Speed 24 km/h    
Visibility 16 kilometers    
Events      
T = Trace of Precipitation, MM = Missing Value Source: NWS Daily Summary

Daily Weather History Graph

Daily Weather History Graph

Search for Another Location

Airport:

Trip Planner

Search our weather history database for the weather conditions in past years. The results will help you decide how hot, cold, wet, or windy it might be!

Date:

Astronomy

Jan. 04, 2013 Rise Set
Actual Time 7:22 AM MST 4:37 PM MST
Civil Twilight 6:50 AM MST 5:08 PM MST
Nautical Twilight 6:15 AM MST 5:43 PM MST
Astronomical Twilight 5:42 AM MST 6:17 PM MST
Moon No Moon Rise 10:58 AM MST (1/4)
Length of Visible Light 10h 17m
Length of Day
9h 14m
Waning Gibbous, 54% of the Moon is Illuminated
Jan 4
Waning Gibbous
Jan 4
Last Quarter
Jan 11
New
Jan 18
First Quarter
Jan 26
Full

Hourly Weather History & Observations

Time (MST) Temp. Windchill Dew Point Humidity Pressure Visibility Wind Dir Wind Speed Gust Speed Precip Events Conditions
12:53 AM -10.0 °C -16.7 °C -14.4 °C 71% 1025.8 hPa 16.1 km NW 14.8 km/h / 4.1 m/s - N/A   Clear
1:53 AM -10.6 °C -17.9 °C -15.0 °C 71% 1025.6 hPa 16.1 km NW 16.7 km/h / 4.6 m/s - N/A   Clear
2:53 AM -9.4 °C -15.4 °C -15.0 °C 64% 1025.2 hPa 16.1 km NW 13.0 km/h / 3.6 m/s - N/A   Clear
3:53 AM -10.6 °C -17.4 °C -15.0 °C 71% 1025.1 hPa 16.1 km NW 14.8 km/h / 4.1 m/s - N/A   Clear
4:53 AM -12.0 °C -19.1 °C -16.0 °C 73% 1020.9 hPa 16.1 km NW 14.8 km/h / 4.1 m/s - N/A   Clear
5:53 AM -10.6 °C -18.7 °C -15.6 °C 67% 1025.8 hPa 16.1 km NW 20.4 km/h / 5.7 m/s - N/A   Clear
7:53 AM -11.1 °C -18.0 °C -15.6 °C 70% 1027.1 hPa 16.1 km WNW 14.8 km/h / 4.1 m/s - N/A   Clear
8:53 AM -7.2 °C -11.6 °C -13.9 °C 59% 1026.7 hPa 16.1 km WNW 9.3 km/h / 2.6 m/s - N/A   Clear
9:53 AM -3.3 °C -8.4 °C -13.3 °C 47% 1026.3 hPa 16.1 km NW 14.8 km/h / 4.1 m/s - N/A   Clear
10:53 AM -0.6 °C -5.1 °C -13.3 °C 38% 1024.6 hPa 16.1 km NW 14.8 km/h / 4.1 m/s - N/A   Clear
11:53 AM 1.1 °C -3.3 °C -12.2 °C 37% 1023.3 hPa 16.1 km NW 16.7 km/h / 4.6 m/s - N/A   Clear
12:53 PM 3.3 °C 0.8 °C -11.7 °C 33% 1021.7 hPa 16.1 km West 9.3 km/h / 2.6 m/s - N/A   Clear
1:53 PM 4.4 °C 3.2 °C -11.7 °C 31% 1020.8 hPa 16.1 km West 5.6 km/h / 1.5 m/s - N/A   Clear
2:53 PM 6.1 °C 5.2 °C -11.1 °C 28% 1019.9 hPa 16.1 km NNW 5.6 km/h / 1.5 m/s - N/A   Clear
3:53 PM 5.0 °C 3.3 °C -10.0 °C 33% 1019.8 hPa 16.1 km NNW 7.4 km/h / 2.1 m/s - N/A   Clear
4:53 PM -2.2 °C -6.2 °C -10.6 °C 53% 1021.3 hPa 16.1 km North 11.1 km/h / 3.1 m/s - N/A   Clear
5:53 PM -5.0 °C -8.4 °C -10.6 °C 65% 1022.3 hPa 16.1 km West 7.4 km/h / 2.1 m/s - N/A   Clear
6:53 PM -5.6 °C -9.7 °C -10.6 °C 68% 1022.6 hPa 16.1 km NW 9.3 km/h / 2.6 m/s - N/A   Clear
7:53 PM -7.2 °C -12.8 °C -11.1 °C 74% 1023.0 hPa 16.1 km WNW 13.0 km/h / 3.6 m/s - N/A   Clear
8:53 PM -6.7 °C -12.1 °C -11.7 °C 68% 1022.4 hPa 16.1 km West 13.0 km/h / 3.6 m/s - N/A   Clear
9:53 PM -7.8 °C -12.3 °C -11.7 °C 74% 1022.2 hPa 16.1 km West 9.3 km/h / 2.6 m/s - N/A   Clear
10:53 PM -8.3 °C -14.1 °C -11.7 °C 77% 1022.0 hPa 16.1 km WNW 13.0 km/h / 3.6 m/s - N/A   Clear
11:53 PM -9.4 °C -15.9 °C -12.8 °C 77% 1021.1 hPa 16.1 km NW 14.8 km/h / 4.1 m/s - N/A   Clear